GPS BIIF-3 (PRN 24)

Last updated on Sun Nov 16 2025 00:04:22 GMT+0000 (Coordinated Universal Time)

1 38833U 12053A 25319.42975172 .00000093 00000+0 00000+0 0 9993 2 38833 53.5524 152.3573 0174899 63.5584 298.2922 2.00564802 95157
UTC large
Height (km)
Speed (km/s)
/
Latitude / Longitude
Inclination (degrees)
Orbital Period (minutes)
Azimuth
Elevation
Range (km)
Doppler Factor

Next 0 passes for location: London (51.5072 / 0.1276)

Sorry there are no passes over London.